Fort Bridger, WY

1:41 PM MDT on September 26, 2016 (GMT -0600)
Fort Bridger

Weather History for KFBR - March, 2014

Change the Weather History Date:

Monday, March 10, 2014

  Actual Average (KEVW) Record (KEVW)
Temperature  
Mean Temperature 44 °F 29 °F  
Max Temperature 57 °F 38 °F 56 °F (2016)
Min Temperature 31 °F 20 °F 2 °F (2009)
Degree Days  
Heating Degree Days 21 36  
Month to date heating degree days 375  
Since 1 July heating degree days 6383  
Cooling Degree Days 0 0  
Month to date cooling degree days 0  
Year to date cooling degree days 0  
Moisture  
Dew Point 21 °F    
Average Humidity 45    
Maximum Humidity 100    
Minimum Humidity 16    
Precipitation  
Precipitation 0.00 in 0.02 in 0.04 in (2007)
Month to date precipitation 0.21  
Year to date precipitation 1.36  
Sea Level Pressure  
Sea Level Pressure 29.99 in    
Wind  
Wind Speed 15 mph (WSW)    
Max Wind Speed 34 mph    
Max Gust Speed 45 mph    
Visibility 9 miles    
Events Snow    
T = Trace of Precipitation, MM = Missing Value Source: NWS Daily Summary

Daily Weather History Graph

Daily Weather History Graph

Search for Another Location

Airport or City:

Trip Planner

Search our weather history database for the weather conditions in past years. The results will help you decide how hot, cold, wet, or windy it might be!

Date:

Astronomy

Mar. 10, 2014 Rise Set
Actual Time 7:41 AM MDT 7:22 PM MDT
Civil Twilight 7:13 AM MDT 7:50 PM MDT
Nautical Twilight 6:41 AM MDT 8:22 PM MDT
Astronomical Twilight 6:09 AM MDT 8:54 PM MDT
Moon 2:06 PM MDT (3/10) 3:58 AM MDT (3/10)
Length of Visible Light 12h 36m
Length of Day
11h 41m
Waxing Gibbous, 70% of the Moon is Illuminated
Mar 10
Waxing Gibbous
Mar 16
Full
Mar 23
Last Quarter
Mar 30
New
Apr 7
First Quarter

Hourly Weather History & Observations

Time (MDT) Temp. Windchill Dew Point Humidity Pressure Visibility Wind Dir Wind Speed Gust Speed Precip Events Conditions
12:15 AM 38.8 °F 31.6 °F 22.1 °F 51% 30.22 in 10.0 mi WSW 11.5 mph - N/A   Clear
12:35 AM 43.7 °F 35.7 °F 20.8 °F 40% 30.21 in 10.0 mi WSW 18.4 mph 23.0 mph N/A   Clear
12:55 AM 42.8 °F 35.4 °F 21.9 °F 44% 30.20 in 10.0 mi WSW 15.0 mph 20.7 mph N/A   Clear
1:15 AM 41.9 °F 35.0 °F 22.1 °F 45% 30.20 in 10.0 mi WSW 12.7 mph - N/A   Clear
1:35 AM 42.8 °F 36.2 °F 21.4 °F 43% 30.20 in 10.0 mi WSW 12.7 mph - N/A   Clear
1:55 AM 41.7 °F 34.4 °F 21.4 °F 44% 30.19 in 10.0 mi WSW 13.8 mph - N/A   Scattered Clouds
2:15 AM 44.1 °F 38.1 °F 18.0 °F 35% 30.19 in 10.0 mi WSW 11.5 mph - N/A   Scattered Clouds
2:35 AM 41.4 °F 36.2 °F 20.3 °F 43% 30.18 in 10.0 mi West 8.1 mph - N/A   Mostly Cloudy
2:55 AM 41.0 °F 35.8 °F 20.3 °F 44% 30.17 in 10.0 mi WSW 8.1 mph - N/A   Overcast
3:15 AM 41.9 °F 37.5 °F 19.8 °F 41% 30.16 in 10.0 mi West 6.9 mph - N/A   Overcast
3:35 AM 40.1 °F 36.1 °F 21.7 °F 48% 30.14 in 10.0 mi West 5.8 mph - N/A   Overcast
3:55 AM 43.2 °F 36.6 °F 18.7 °F 38% 30.14 in 10.0 mi WSW 12.7 mph - N/A   Overcast
4:15 AM 42.4 °F 35.7 °F 19.4 °F 40% 30.13 in 10.0 mi WSW 12.7 mph - N/A   Overcast
4:35 AM 43.0 °F 36.8 °F 18.9 °F 38% 30.12 in 10.0 mi WSW 11.5 mph - N/A   Overcast
4:55 AM 43.2 °F 37.4 °F 17.6 °F 36% 30.11 in 10.0 mi WSW 10.4 mph - N/A   Overcast
5:15 AM 43.5 °F 36.1 °F 16.2 °F 33% 30.10 in 10.0 mi SW 16.1 mph - N/A   Mostly Cloudy
5:35 AM 43.0 °F 36.8 °F 15.8 °F 33% 30.09 in 10.0 mi WSW 11.5 mph - N/A   Scattered Clouds
5:55 AM 43.0 °F 36.8 °F 14.7 °F 32% 30.09 in 10.0 mi WSW 11.5 mph - N/A   Clear
6:15 AM 43.2 °F 37.0 °F 15.6 °F 33% 30.08 in 10.0 mi WSW 11.5 mph - N/A   Mostly Cloudy
6:35 AM 43.7 °F 37.7 °F 15.6 °F 32% 30.07 in 10.0 mi SW 11.5 mph - N/A   Scattered Clouds
6:55 AM 41.2 °F 35.0 °F 18.3 °F 40% 30.06 in 10.0 mi SW 10.4 mph - N/A   Mostly Cloudy
7:15 AM 42.8 °F 37.0 °F 16.2 °F 34% 30.05 in 10.0 mi WSW 10.4 mph - N/A   Mostly Cloudy
7:35 AM 43.0 °F 37.7 °F 15.6 °F 33% 30.05 in 10.0 mi WSW 9.2 mph - N/A   Mostly Cloudy
7:55 AM 39.0 °F 32.3 °F 18.1 °F 43% 30.04 in 10.0 mi SW 10.4 mph - N/A   Mostly Cloudy
8:15 AM 39.9 °F 35.1 °F 19.8 °F 44% 30.04 in 10.0 mi SSW 6.9 mph - N/A   Overcast
8:35 AM 40.1 °F 38.0 °F 22.1 °F 49% 30.04 in 10.0 mi East 3.5 mph - N/A   Overcast
8:55 AM 39.6 °F - 22.6 °F 51% 30.04 in 10.0 mi Calm Calm - N/A   Mostly Cloudy
9:15 AM 41.0 °F - 22.1 °F 47% 30.04 in 10.0 mi Calm Calm - N/A   Mostly Cloudy
9:35 AM 43.2 °F 41.5 °F 19.2 °F 38% 30.04 in 10.0 mi WNW 3.5 mph - N/A   Mostly Cloudy
9:55 AM 44.4 °F - 18.0 °F 35% 30.03 in 10.0 mi Calm Calm - N/A   Mostly Cloudy
10:15 AM 46.9 °F - 19.8 °F 34% 30.01 in 10.0 mi South 5.8 mph - N/A   Mostly Cloudy
10:35 AM 50.9 °F - 17.8 °F 27% 30.00 in 10.0 mi SW 20.7 mph 26.5 mph N/A   Mostly Cloudy
10:55 AM 51.8 °F - 17.4 °F 26% 30.00 in 10.0 mi SW 21.9 mph 25.3 mph N/A   Overcast
11:15 AM 52.9 °F - 19.9 °F 28% 29.99 in 10.0 mi SW 17.3 mph 23.0 mph N/A   Scattered Clouds
11:35 AM 54.5 °F - 23.5 °F 30% 29.98 in 10.0 mi SW 16.1 mph 24.2 mph N/A   Clear
11:55 AM 55.6 °F - 23.7 °F 29% 29.97 in 10.0 mi WSW 21.9 mph 28.8 mph N/A   Clear
12:15 PM 57.2 °F - 24.3 °F 28% 29.96 in 10.0 mi WSW 25.3 mph 31.1 mph N/A   Clear
12:35 PM 57.7 °F - 23.4 °F 27% 29.94 in 10.0 mi WSW 23.0 mph 31.1 mph N/A   Clear
12:55 PM 57.9 °F - 21.6 °F 25% 29.94 in 10.0 mi WSW 23.0 mph 32.2 mph N/A   Clear
1:15 PM 57.7 °F - 21.2 °F 24% 29.92 in 10.0 mi WSW 25.3 mph 39.1 mph N/A   Clear
1:35 PM 57.9 °F - 16.7 °F 20% 29.92 in 10.0 mi West 27.6 mph 36.8 mph N/A   Clear
1:55 PM 57.7 °F - 14.9 °F 19% 29.91 in 10.0 mi West 32.2 mph 41.4 mph N/A   Clear
2:15 PM 57.2 °F - 13.8 °F 18% 29.89 in 10.0 mi West 28.8 mph 42.6 mph N/A   Clear
2:35 PM 57.6 °F - 13.8 °F 18% 29.88 in 10.0 mi West 24.2 mph 38.0 mph N/A   Clear
2:55 PM 57.4 °F - 12.0 °F 17% 29.87 in 10.0 mi WSW 33.4 mph 36.8 mph N/A   Clear
3:15 PM 57.9 °F - 10.9 °F 16% 29.86 in 10.0 mi WSW 27.6 mph 39.1 mph N/A   Clear
3:35 PM 56.8 °F - 10.8 °F 16% 29.86 in 10.0 mi WSW 27.6 mph 36.8 mph N/A   Clear
3:55 PM 55.9 °F - 9.9 °F 16% 29.86 in 10.0 mi WSW 29.9 mph 38.0 mph N/A   Clear
4:15 PM 54.9 °F - 12.6 °F 19% 29.86 in 10.0 mi WSW 31.1 mph 39.1 mph N/A   Clear
4:35 PM 53.6 °F - 16.0 °F 23% 29.86 in 10.0 mi West 31.1 mph 40.3 mph N/A   Clear
4:55 PM 52.3 °F - 18.7 °F 27% 29.85 in 10.0 mi West 34.5 mph 44.9 mph N/A   Clear
5:15 PM 50.2 °F - 19.6 °F 30% 29.84 in 10.0 mi West 26.5 mph 41.4 mph N/A   Clear
5:35 PM 49.3 °F - 19.0 °F 30% 29.83 in 10.0 mi West 26.5 mph 38.0 mph N/A   Scattered Clouds
5:55 PM 49.1 °F - 17.4 °F 28% 29.84 in 10.0 mi West 26.5 mph 39.1 mph N/A   Scattered Clouds
6:15 PM 47.5 °F - 19.2 °F 33% 29.84 in 10.0 mi West 26.5 mph 39.1 mph N/A   Scattered Clouds
6:35 PM 46.8 °F - 19.2 °F 33% 29.83 in 10.0 mi West 28.8 mph 40.3 mph N/A   Scattered Clouds
6:55 PM 45.0 °F 36.2 °F 19.6 °F 36% 29.85 in 10.0 mi West 24.2 mph 31.1 mph N/A   Clear
7:15 PM 42.1 °F 31.0 °F 26.6 °F 54% 29.86 in 10.0 mi WNW 32.2 mph 40.3 mph N/A   Scattered Clouds
7:35 PM 39.2 °F 28.3 °F 30.0 °F 70% 29.88 in 10.0 mi WNW 25.3 mph 35.7 mph N/A   Mostly Cloudy
7:55 PM 38.3 °F 26.4 °F 31.8 °F 77% 29.90 in 10.0 mi WNW 28.8 mph 35.7 mph N/A   Unknown
8:15 PM 35.6 °F 24.8 °F 33.1 °F 91% 29.91 in 2.0 mi WNW 19.6 mph 26.5 mph N/A Snow Light Snow
8:35 PM 34.3 °F 25.5 °F 33.8 °F 98% 29.90 in 5.0 mi West 12.7 mph - N/A Snow Light Snow
8:55 PM 34.3 °F 25.9 °F 34.0 °F 99% 29.91 in 1.8 mi West 11.5 mph - N/A Snow Light Snow
9:15 PM 34.0 °F 26.6 °F 33.8 °F 99% 29.90 in 0.8 mi WSW 9.2 mph - N/A Snow Snow
9:35 PM 34.0 °F 23.0 °F 34.0 °F 100% 29.91 in 2.5 mi West 18.4 mph 21.9 mph N/A Snow Light Snow
9:55 PM 33.8 °F 22.2 °F 33.8 °F 100% 29.93 in 0.5 mi West 20.7 mph 29.9 mph N/A Snow Snow
10:15 PM 32.4 °F 19.4 °F 32.2 °F 99% 29.93 in 7.0 mi WNW 24.2 mph 28.8 mph N/A Snow Light Snow
10:35 PM 32.0 °F 20.1 °F 31.8 °F 99% 29.95 in 10.0 mi West 19.6 mph 25.3 mph N/A   Overcast
10:55 PM 32.0 °F 21.2 °F 30.4 °F 94% 29.96 in 7.0 mi West 16.1 mph 26.5 mph N/A Snow Light Snow
11:15 PM 31.1 °F 20.1 °F 29.1 °F 92% 29.96 in 10.0 mi West 16.1 mph 23.0 mph N/A   Overcast
11:35 PM 31.5 °F 20.9 °F 29.7 °F 93% 29.96 in 10.0 mi West 15.0 mph 23.0 mph N/A   Overcast
11:55 PM 31.1 °F 18.9 °F 27.3 °F 86% 29.97 in 10.0 mi West 19.6 mph 27.6 mph N/A   Overcast